Somerville, NJ

11:54 PM EST on December 06, 2019 (GMT -0500)
Somerset

Weather History for KSMQ - November, 2019

Change the Weather History Date:

Wednesday, November 13, 2019

  Actual Average Record
Temperature  
Mean Temperature 26 °F -  
Max Temperature 34 °F 51 °F 75 °F (1931)
Min Temperature 19 °F 34 °F 19 °F (1957)
Degree Days  
Heating Degree Days 38    
Moisture  
Dew Point 8 °F    
Average Humidity 50    
Maximum Humidity 85    
Minimum Humidity 28    
Precipitation  
Precipitation 0.00 in - - ()
Sea Level Pressure  
Sea Level Pressure 30.34 in    
Wind  
Wind Speed 6 mph (NW)    
Max Wind Speed 16 mph    
Max Gust Speed 25 mph    
Visibility 10 miles    
Events      
Averages and records for this station are not official NWS values.
T = Trace of Precipitation, MM = Missing Value Source: NWS Daily Summary

Daily Weather History Graph

Daily Weather History Graph

Search for Another Location

Airport or City:

Astronomy

Nov. 13, 2019 Rise Set
Actual Time 6:42 AM EST 4:42 PM EST
Civil Twilight 6:13 AM EST 5:11 PM EST
Nautical Twilight 5:40 AM EST 5:44 PM EST
Astronomical Twilight 5:08 AM EST 6:17 PM EST
Moon 5:44 PM EST (11/13) 7:33 AM EST (11/13)
Length of Visible Light 10h 58m
Length of Day
10h 00m
Full, 99% of the Moon is Illuminated
Nov 13
Full
Nov 19
Last Quarter
Nov 26
New
Dec 4
First Quarter
Dec 12
Full

Hourly Weather History & Observations

Time (EST) Temp. Windchill Dew Point Humidity Pressure Visibility Wind Dir Wind Speed Gust Speed Precip Events Conditions
12:53 AM 24.1 °F 13.7 °F 3.9 °F 42% 30.21 in 10.0 mi WNW 10.4 mph 19.6 mph N/A   Clear
1:53 AM 21.9 °F 17.2 °F 5.0 °F 48% 30.22 in 10.0 mi Variable 3.5 mph - N/A   Clear
2:53 AM 21.0 °F 14.6 °F 5.0 °F 50% 30.24 in 10.0 mi Variable 4.6 mph - N/A   Clear
3:53 AM 19.9 °F - 6.1 °F 55% 30.25 in 10.0 mi Calm Calm - N/A   Clear
4:53 AM 19.9 °F - 7.0 °F 57% 30.27 in 10.0 mi Calm Calm - N/A   Clear
5:53 AM 19.9 °F - 7.0 °F 57% 30.28 in 10.0 mi Calm Calm - N/A   Clear
6:53 AM 19.9 °F 14.9 °F 7.0 °F 57% 30.31 in 10.0 mi WNW 3.5 mph - N/A   Clear
7:53 AM 23.0 °F 18.4 °F 8.1 °F 53% 30.33 in 10.0 mi Variable 3.5 mph - N/A   Clear
8:53 AM 26.1 °F 17.6 °F 9.0 °F 49% 30.34 in 10.0 mi WNW 8.1 mph 18.4 mph N/A   Clear
9:53 AM 28.9 °F 20.4 °F 9.0 °F 43% 30.35 in 10.0 mi NW 9.2 mph 21.9 mph N/A   Clear
10:53 AM 30.9 °F 19.8 °F 5.0 °F 33% 30.34 in 10.0 mi NW 16.1 mph 25.3 mph N/A   Clear
11:53 AM 33.1 °F 24.9 °F 5.0 °F 31% 30.35 in 10.0 mi NW 10.4 mph 20.7 mph N/A   Clear
12:53 PM 34.0 °F 23.8 °F 3.9 °F 28% 30.33 in 10.0 mi NNW 16.1 mph 20.7 mph N/A   Clear
1:53 PM 34.0 °F 28.0 °F 3.9 °F 28% 30.34 in 10.0 mi NNW 6.9 mph - N/A   Clear
2:53 PM 34.0 °F 26.0 °F 3.9 °F 28% 30.35 in 10.0 mi NNW 10.4 mph - N/A   Clear
3:53 PM 33.1 °F 26.9 °F 5.0 °F 31% 30.37 in 10.0 mi NW 6.9 mph - N/A   Clear
4:53 PM 30.0 °F 25.2 °F 6.1 °F 36% 30.38 in 10.0 mi NW 4.6 mph - N/A   Clear
5:53 PM 27.0 °F 23.0 °F 9.0 °F 47% 30.40 in 10.0 mi North 3.5 mph - N/A   Clear
6:53 PM 25.0 °F - 10.0 °F 53% 30.42 in 10.0 mi Calm Calm - N/A   Clear
7:53 PM 23.0 °F - 14.0 °F 68% 30.43 in 10.0 mi Calm Calm - N/A   Clear
8:53 PM 21.0 °F - 12.9 °F 71% 30.43 in 10.0 mi Calm Calm - N/A   Clear
9:53 PM 21.0 °F - 15.1 °F 78% 30.44 in 10.0 mi Calm Calm - N/A   Clear
10:53 PM 21.0 °F - 14.0 °F 74% 30.44 in 10.0 mi Calm Calm - N/A   Clear
11:53 PM 19.9 °F - 16.0 °F 85% 30.45 in 10.0 mi Calm Calm - N/A   Clear